Location: Kitt Peak
(31.9639°N, 111.5992°W)
Time: 12:23:45
(UTC-07:00)

ISS - Visible Passes

Search period start: 21 September 2017 00:00
Search period end: 01 October 2017 00:00
Orbit: 401 x 407 km, 51.6° (Epoch: 22 September)

Date Brightness Start Highest point End Pass type
(mag) Time Alt. Az. Time Alt. Az. Time Alt. Az.
21 Sep -0.2 03:43:18 10° ENE 03:43:18 10° ENE 03:43:21 10° ENE visible
21 Sep -3.6 05:16:02 18° WNW 05:18:10 50° SW 05:21:21 10° SSE visible
22 Sep -2.4 04:27:08 34° ESE 04:27:08 34° ESE 04:29:10 10° SE visible
22 Sep -2.3 19:23:20 10° S 19:25:18 20° SE 19:25:18 20° SE visible
23 Sep -1.7 05:11:08 14° SSW 05:11:08 14° SSW 05:12:01 10° S visible
23 Sep -2.6 20:06:36 10° WSW 20:09:00 40° W 20:09:00 40° W visible
24 Sep -3.9 19:14:16 10° SW 19:17:29 64° SE 19:19:46 18° NE visible
25 Sep -1.4 19:59:08 10° W 20:01:42 21° NW 20:02:58 17° N visible
26 Sep -2.5 19:06:09 10° WSW 19:09:14 40° NW 19:12:21 10° NNE visible
27 Sep -0.6 19:53:17 10° NW 19:53:43 10° NNW 19:54:09 10° NNW visible
28 Sep -1.1 18:58:51 10° W 19:01:06 17° NW 19:03:22 10° N visible
